TimeMST,TemperatureF,Dew PointF,Humidity,Sea Level PressureIn,VisibilityMPH,Wind Direction,Wind SpeedMPH,Gust SpeedMPH,PrecipitationIn,Events,Conditions,WindDirDegrees,DateUTC
12:54 AM,43.0,19.0,38,30.11,10.0,South,9.2,-,N/A,,Clear,170,2012-11-04 07:54:00
1:54 AM,41.0,19.0,41,30.14,10.0,SSE,5.8,-,N/A,,Clear,160,2012-11-04 08:54:00
2:54 AM,39.9,19.0,43,30.13,10.0,South,3.5,-,N/A,,Clear,180,2012-11-04 09:54:00
3:54 AM,32.0,16.0,52,30.16,10.0,Calm,Calm,-,N/A,,Clear,0,2012-11-04 10:54:00
4:54 AM,28.9,16.0,58,30.19,10.0,Calm,Calm,-,N/A,,Clear,0,2012-11-04 11:54:00
5:54 AM,33.1,18.0,54,30.22,10.0,Calm,Calm,-,N/A,,Clear,0,2012-11-04 12:54:00
6:54 AM,30.9,17.1,57,30.26,10.0,Calm,Calm,-,N/A,,Clear,0,2012-11-04 13:54:00
7:54 AM,36.0,18.0,48,30.27,10.0,Calm,Calm,-,N/A,,Clear,0,2012-11-04 14:54:00
8:54 AM,44.1,19.0,37,30.27,10.0,Calm,Calm,-,N/A,,Clear,0,2012-11-04 15:54:00
9:54 AM,50.0,19.9,31,30.25,10.0,Calm,Calm,-,N/A,,Clear,0,2012-11-04 16:54:00
10:54 AM,57.9,21.0,24,30.22,10.0,Variable,3.5,-,N/A,,Clear,0,2012-11-04 17:54:00
11:54 AM,63.0,19.9,19,30.17,10.0,North,3.5,-,N/A,,Clear,350,2012-11-04 18:54:00
12:54 PM,64.9,18.0,16,30.14,10.0,Variable,5.8,-,N/A,,Clear,0,2012-11-04 19:54:00
1:54 PM,66.9,17.1,15,30.13,10.0,North,8.1,-,N/A,,Clear,350,2012-11-04 20:54:00
2:54 PM,68.0,15.1,13,30.12,10.0,WNW,9.2,-,N/A,,Clear,290,2012-11-04 21:54:00
3:54 PM,66.9,12.9,12,30.15,10.0,WNW,6.9,-,N/A,,Clear,300,2012-11-04 22:54:00
4:54 PM,64.0,10.9,13,30.17,10.0,WNW,4.6,-,N/A,,Clear,300,2012-11-04 23:54:00
5:54 PM,52.0,12.0,20,30.22,10.0,West,4.6,-,N/A,,Clear,270,2012-11-05 00:54:00
6:54 PM,48.9,10.9,22,30.26,10.0,West,5.8,-,N/A,,Clear,270,2012-11-05 01:54:00
7:54 PM,48.9,10.9,22,30.25,10.0,SE,3.5,-,N/A,,Clear,130,2012-11-05 02:54:00
8:54 PM,46.9,10.9,23,30.24,10.0,South,6.9,-,N/A,,Clear,170,2012-11-05 03:54:00
9:54 PM,45.0,12.0,26,30.23,10.0,South,6.9,-,N/A,,Clear,170,2012-11-05 04:54:00
10:54 PM,44.1,10.9,26,30.21,10.0,South,5.8,-,N/A,,Clear,180,2012-11-05 05:54:00
11:54 PM,43.0,12.0,28,30.19,10.0,South,5.8,-,N/A,,Clear,170,2012-11-05 06:54:00